Regional Weather Roundup
Issued by NWS

Home | Current Version | Previous Version | Text Only | Print | Product List | Glossary Off
Versions: 1 2 3 4 5 6 7 8 9 10 11 12 13 14 15 16 17 18 19 20 21 22 23 24 25 26 27 28 29 30 31 32 33 34 35 36 37 38 39 40 41 42 43 44 45 46 47 48 49 50

000
ASUS43 KDTX 230610
RWRMI
MICHIGAN HOURLY REGIONAL WEATHER ROUNDUP
NATIONAL WEATHER SERVICE DETROIT/PONTIAC MI
ISSUED BY NATIONAL WEATHER SERVICE GRAND RAPIDS MI
100 AM EST THU FEB 23 2017

NOTE: "FAIR" INDICATES FEW OR NO CLOUDS BELOW 12,000 FEET WITH NO
SIGNIFICANT WEATHER AND/OR OBSTRUCTION TO VISIBILITY.

MIZ047>049-052>055-059>063-066>070-074>076-081>083-230700-
SOUTHEAST LOWER MICHIGAN

CITY           SKY/WX    TMP DP  RH WIND       PRES   REMARKS
ADRIAN         CLOUDY    54  53  97 SW12      29.69F
6HR MIN TEMP:  54; 6HR MAX TEMP:  58;

ALMA           CLOUDY    55  51  88 S12G18    29.59F
ANN ARBOR      CLEAR     54  53  97 S8        29.67F FOG
BAD AXE        CLOUDY    54  50  86 SW6       29.61F
6HR MIN TEMP:  52; 6HR MAX TEMP:  56;

DETROIT CITY   CLOUDY    57  55  93 S15G21    29.68F
6HR MIN TEMP:  56; 6HR MAX TEMP:  58;

DETROIT        CLOUDY    56  53  90 S9        29.69F FOG
6HR MIN TEMP:  55; 6HR MAX TEMP:  60;

FLINT          PTCLDY    57  52  83 S13       29.62F
6HR MIN TEMP:  55; 6HR MAX TEMP:  57;

GROSSE ILE     FOG       44  44  99 S7        29.69S VSB 1/2
6HR MIN TEMP:  42; 6HR MAX TEMP:  50;

HILLSDALE      PTCLDY    54  52  94 S12       29.67F FOG
HOWELL         MOCLDY    56  51  82 S10       29.64F
6HR MIN TEMP:  56; 6HR MAX TEMP:  57;


CITY           SKY/WX    TMP DP  RH WIND       PRES   REMARKS
JACKSON        PTCLDY    58  52  80 SW17      29.65F
6HR MIN TEMP:  56; 6HR MAX TEMP:  59;

LANSING        MOCLDY    57  52  83 S17G24    29.62F
6HR MIN TEMP:  56; 6HR MAX TEMP:  57;

MASON          MOCLDY    56  53  89 S8        29.63F
MONROE         MOCLDY    55  54  97 S9        29.68F FOG
6HR MIN TEMP:  53; 6HR MAX TEMP:  59;

MT. CLEMENS    PTCLDY    51  51 100 S10       29.65F
6HR MIN TEMP:  49; 6HR MAX TEMP:  55;

PONTIAC        CLOUDY    57  52  83 S9        29.65F
6HR MIN TEMP:  55; 6HR MAX TEMP:  59;

PORT HOPE        N/A     41  40  96 CALM      29.59F
6HR MIN TEMP:  41; 6HR MAX TEMP:  59;

PORT HURON     MOCLDY    54  52  94 S9        29.66F FOG
TRI CITIES     CLOUDY    55  52  89 S10       29.59F
6HR MIN TEMP:  55; 6HR MAX TEMP:  57;

YPSILANTI      PTCLDY    58  55  90 S15       29.68F
6HR MIN TEMP:  57; 6HR MAX TEMP:  61;

$$
MIZ043>046-050>051-056>058-064>065-071>073-077>080-230700-
SOUTHWEST LOWER MICHIGAN

CITY           SKY/WX    TMP DP  RH WIND       PRES   REMARKS
BATTLE CREEK   MOCLDY    57  54  89 S15       29.64F
6HR MIN TEMP:  55; 6HR MAX TEMP:  58;

BENTON HARBOR  CLEAR     62  53  72 SW16G31   29.62S
6HR MIN TEMP:  58; 6HR MAX TEMP:  62;

BIG RAPIDS     CLOUDY    56  52  85 SW7       29.54F
6HR MIN TEMP:  56; 6HR MAX TEMP:  58;

COLDWATER      MOCLDY    58  55  89 S12G18    29.66F
6HR MIN TEMP:  56; 6HR MAX TEMP:  59;

HOLLAND        CLEAR     60  54  80 SW25G35   29.59S
6HR MIN TEMP:  57; 6HR MAX TEMP:  61;

GRAND RAPIDS   PTCLDY    57  52  83 SW15      29.59F
6HR MIN TEMP:  56; 6HR MAX TEMP:  59;

KALAMAZOO      CLEAR     57  52  83 S14       29.64S
6HR MIN TEMP:  54; 6HR MAX TEMP:  59;

MARSHALL       CLOUDY    58  55  88 S12       29.64F
6HR MIN TEMP:  56; 6HR MAX TEMP:  59;

MOUNT PLEASANT MOCLDY    56  52  86 S7        29.56F
6HR MIN TEMP:  55; 6HR MAX TEMP:  57;

MUSKEGON       CLEAR     53  50  89 S17       29.57S
6HR MIN TEMP:  53; 6HR MAX TEMP:  61;

STURGIS        CLOUDY    56  53  91 SW15      29.65S
6HR MIN TEMP:  54; 6HR MAX TEMP:  56;

$$
MIZ016>042-230700-
NORTHERN LOWER MICHIGAN

CITY           SKY/WX    TMP DP  RH WIND       PRES   REMARKS
ALPENA         CLOUDY    44  43  96 E3        29.53F
6HR MIN TEMP:  42; 6HR MAX TEMP:  55;

BEAVER ISLAND  CLOUDY    39  39 100 NW8       29.52R FOG     WCI  34
6HR MIN TEMP:  38; 6HR MAX TEMP:  42;

BELLAIRE       LGT SNOW  46  44  95 SE5       29.50R
6HR MIN TEMP:  43; 6HR MAX TEMP:  55;

CADILLAC       CLOUDY    54  52  95 SW10      29.51F FOG
CHARLEVOIX     CLOUDY    42  42 100 CALM      29.52F FOG
GAYLORD        CLOUDY    49  46  90 S6        29.49F FOG
6HR MIN TEMP:  44; 6HR MAX TEMP:  52; 6HR PCP:  0.01;

HOUGHTON LAKE  PTCLDY    52  49  89 S12       29.52F FOG
6HR MIN TEMP:  47; 6HR MAX TEMP:  54;

MANISTEE       PTCLDY    55  51  86 SW8       29.50F
OSCODA         PTCLDY    52  51  93 S12G20    29.55F FOG
6HR MIN TEMP:  47; 6HR MAX TEMP:  56;

PELLSTON       LGT RAIN  40  39  97 SE5       29.51F VSB 1/2
6HR MIN TEMP:  39; 6HR MAX TEMP:  42; 6HR PCP:  0.06;

TRAVERSE CITY  CLOUDY    47  44  90 SE3       29.49S
6HR MIN TEMP:  43; 6HR MAX TEMP:  59;

LUDINGTON      CLOUDY    51  50  96 SW13G18   29.53S FOG
6HR MIN TEMP:  51; 6HR MAX TEMP:  57;

$$
MIZ007>008-015-230700-
EASTERN UPPER MICHIGAN

CITY           SKY/WX    TMP DP  RH WIND       PRES   REMARKS
KINROSS        FOG       38  38 100 N5        29.53F VSB 1/4 WCI  34
6HR MIN TEMP:  38; 6HR MAX TEMP:  44; 6HR PCP:  0.37;

MACKINAC ISLAN FOG       38  38 100 E6        29.50F VSB 1/2 WCI  34
6HR MIN TEMP:  38; 6HR MAX TEMP:  43; 6HR PCP:  0.04;

NEWBERRY       LGT RAIN  36  36 100 NW3       29.52F VSB 1/4
S. S. MARIE    LGT RAIN  39  37  92 N3        29.53F VSB 1/4
6HR MIN TEMP:  38; 6HR MAX TEMP:  40; 6HR PCP:  0.36;

$$
MIZ004>006-011>014-085-230700-
CENTRAL UPPER MICHIGAN

CITY           SKY/WX    TMP DP  RH WIND       PRES   REMARKS
MANISTIQUE     CLOUDY    36  35  98 N10       29.52F WCI  28
6HR MIN TEMP:  36; 6HR MAX TEMP:  40; 6HR PCP:  0.01;

ESCANABA       CLOUDY    36  35  96 NW7       29.56R WCI  30
6HR MIN TEMP:  36; 6HR MAX TEMP:  45; 6HR PCP:  0.01;

MENOMINEE      MOCLDY    40  38  93 N8        29.55R WCI  34
6HR MIN TEMP:  37; 6HR MAX TEMP:  43; 6HR PCP: TRACE;

SAWYER-GWINN   CLOUDY    33  32  94 N15       29.58S WCI  23
6HR MIN TEMP:  33; 6HR MAX TEMP:  35; 6HR PCP:  0.01;

$$
MIZ001>003-009>011-084-230700-
WESTERN UPPER MICHIGAN

CITY           SKY/WX    TMP DP  RH WIND       PRES   REMARKS
IRON MOUNTAIN  CLOUDY    38  33  82 N10       29.56S WCI  31
6HR MIN TEMP:  38; 6HR MAX TEMP:  47; 6HR PCP:  0.08;

HOUGHTON       LGT SNOW  33  29  85 N17       29.65R FOG     WCI  22
6HR MIN TEMP:  33; 6HR MAX TEMP:  37; 6HR PCP:  0.03;

COPPER HARBOR    N/A     35  31  85 NE18      29.66S WCI  24
6HR MIN TEMP:  33; 6HR MAX TEMP:  37; 6HR PCP:  0.02;

IRONWOOD       LGT SNOW  32  32 100 N8        29.71R FOG     WCI  25
6HR MIN TEMP:  32; 6HR MAX TEMP:  40; 6HR PCP:  0.11;

$$

ABBREVIATIONS USED IN REMARKS
   TC - TEMPERATURE IN CELSIUS
  WCI - WIND CHILL INDEX
   HX - HEAT INDEX
  VSB - VISIBILITY




USA.gov is the U.S. government's official web portal to all federal, state and local government web resources and services.